Flag for U.S.A. Weather past 2 weeks in St. Paul, Minnesota, U.S.A.

Now
33 °F

Overcast.


Feels Like: 27 °F
Forecast: 27 / 35 °F
Wind: 7 mph from South

Location: St. Paul Downtown Holman Field

Current Time: Jan 27, 2015 at 3:56:23 PM

Latest Report: Jan 27, 2015 at 2:53 PM


Visibility: 10 mi

Pressure: 30.19 "Hg

Humidity: 72%

Dew point: 25 °F

Location of St. PaulLocation

Historic Weather in St. Paul — Graph

°F

St. Paul temperature yesterday

Maximum temperature yesterday: 44 °F (at 2:53 PM)
Minimum temperature yesterday: 22 °F (at 12:53 AM)
Average temperature yesterday: 34 °F

Past Weeks' High & Low Weather Summary

 TemperatureHumidityPressure
High44 °F (Jan 26, 2:53 PM)100% (Jan 24, 6:53 AM)30.87 "Hg (Jan 24, 6:53 AM)
Low-12 °F (Jan 13, 7:53 AM)52% (Jan 25, 3:53 PM)29.52 "Hg (Jan 17, 12:53 PM)
Average27 °F79%30.05 "Hg
* Reported Jan 12 2:53 PM — Jan 27 2:53 PM, St. Paul, Weather by CustomWeather, © 2014

Note: Actual official high and low records may vary slightly from our data, if they occured in-between our weather recording intervals... More about our weather records

Advertising

St. Paul weather history for previous 24 hours

 ConditionsComfort  
Time TempWeatherWind HumidityBarometerVisibility
2:53 PM
Jan 27
33 °FOvercast.7 mph72%30.19 "Hg10 mi
1:53 PM33 °FOvercast.6 mph72%30.19 "Hg10 mi
12:53 PM32 °FOvercast.6 mph73%30.21 "Hg10 mi
11:53 AM33 °FOvercast.5 mph70%30.21 "Hg10 mi
10:53 AM32 °FOvercast.6 mph75%30.22 "Hg10 mi
9:53 AM32 °FOvercast.3 mph75%30.20 "Hg10 mi
8:53 AM32 °FOvercast.3 mph75%30.19 "Hg10 mi
7:53 AM32 °FOvercast.5 mph75%30.16 "Hg10 mi
6:53 AM32 °FOvercast.10 mph75%30.15 "Hg10 mi
5:53 AM33 °FOvercast.5 mph75%30.12 "Hg10 mi
4:53 AM33 °FOvercast.7 mph75%30.11 "Hg10 mi
3:53 AM34 °FOvercast.9 mph73%30.09 "Hg10 mi
2:53 AM34 °FOvercast.9 mph73%30.07 "Hg10 mi
1:53 AM35 °FOvercast.5 mph72%30.05 "Hg10 mi
12:53 AM35 °FOvercast.8 mph72%30.03 "Hg10 mi
11:53 PM
Jan 26
36 °FOvercast.10 mph73%30.01 "Hg10 mi
10:53 PM37 °FOvercast.13 mph73%29.98 "Hg10 mi
9:53 PM38 °FOvercast.9 mph73%29.95 "Hg10 mi
8:53 PM37 °FOvercast.7 mph76%29.94 "Hg10 mi
7:53 PM39 °FOvercast.9 mph70%29.92 "Hg10 mi
6:53 PM39 °FOvercast.10 mph70%29.89 "Hg10 mi
5:53 PM40 °FOvercast.13 mph77%29.85 "Hg10 mi
4:53 PM41 °FMore clouds than sun.13 mph70%29.83 "Hg10 mi
3:53 PM42 °FMostly cloudy.13 mph71%29.79 "Hg10 mi
Weather by CustomWeather, © 2014

See weather overviewHow to use our weather pages